RH
26 26 26 29 40 39 42 35 31 28 20 10 10 15 20 24 24 24 12 12 13 14 11 12 15 16 15 16 16 16 16 16 16 16 16 16 17 16 17 16 16 15 15 15 12 12 12 11 13
27 27 27 32 41 43 42 35 31 25 17 11 10 12 18 21 20 18 11 12 14 13 8 7 16 15 15 15 16 16 16 16 16 17 16 16 16 17 17 17 17 16 16 14 11 9 8 9 14
26 28 29 34 42 43 40 34 30 25 19 10 9 12 12 13 12 11 10 10 14 12 8 7 14 16 12 15 16 16 17 16 17 16 17 16 16 17 17 16 15 14 15 11 8 7 8 8 14
27 29 31 35 33 33 34 33 29 27 20 10 8 10 9 11 8 9 9 9 11 10 7 6 8 11 9 11 11 14 14 14 12 9 9 9 8 9 12 11 8 9 7 9 8 9 8 8 12
26 30 35 37 36 32 32 32 29 27 18 9 8 11 10 10 9 9 8 7 8 8 8 6 4 5 5 4 5 5 8 6 5 5 5 5 5 5 5 5 5 5 5 6 6 6 7 7 8
26 33 39 40 37 31 29 30 29 26 18 10 8 10 11 10 9 9 7 6 8 7 6 6 4 4 4 4 4 4 4 4 4 4 5 5 5 5 5 5 5 5 5 5 5 5 5 6 7
25 34 39 39 36 31 30 29 29 27 21 11 7 10 10 8 8 8 7 7 8 8 7 7 5 5 4 4 4 4 4 4 5 5 5 5 5 5 5 5 5 5 5 5 5 6 6 6 6
23 33 38 42 41 34 31 29 27 27 22 13 8 9 10 8 7 9 9 10 10 9 8 8 7 5 5 5 5 5 5 4 4 4 4 5 5 5 5 5 5 5 5 6 5 6 6 6 6
24 32 37 40 41 34 31 31 30 28 22 14 10 7 7 7 8 10 11 11 11 10 10 8 8 7 6 6 5 4 4 4 4 4 4 5 5 5 5 5 6 6 6 6 6 6 6 6 7
28 30 32 33 37 33 32 31 29 27 21 13 10 6 6 8 7 8 10 10 11 10 10 9 8 8 7 7 7 6 5 5 5 6 6 6 6 6 7 7 7 7 8 8 8 7 7 8 8
33 30 31 29 31 31 31 30 28 27 20 14 8 5 6 7 8 8 7 7 7 8 9 8 8 8 8 7 7 7 7 6 6 6 6 6 7 7 7 8 8 9 9 9 9 9 9 9 9
35 27 30 32 30 30 30 29 28 26 19 13 7 6 7 8 7 6 6 6 7 8 8 8 8 7 7 8 7 7 7 8 8 8 8 8 8 9 10 10 11 11 11 11 11 10 10 10 10
31 28 26 28 29 27 27 26 27 22 15 10 7 7 8 8 8 7 6 6 7 8 8 8 8 7 7 8 8 8 8 8 9 9 9 10 11 12 13 13 13 12 12 12 12 12 11 11 11
20 26 27 27 26 23 19 17 17 13 8 8 8 7 8 8 8 8 7 7 8 8 7 8 8 8 8 8 8 9 9 9 9 9 11 12 13 14 14 13 13 13 13 13 13 13 13 13 13
13 14 15 14 14 14 13 14 14 5 4 6 8 7 8 8 8 8 7 7 7 7 8 9 10 10 10 9 9 9 10 10 10 11 13 14 14 14 14 14 15 15 15 15 15 16 16 16 16
14 14 14 14 15 15 15 15 8 6 6 5 6 7 7 7 7 7 8 7 7 8 9 11 11 11 12 12 11 11 11 10 11 12 13 14 15 16 16 16 17 17 17 17 17 17 17 17 17
20 19 19 17 16 17 15 11 7 7 7 6 6 6 7 7 7 7 8 7 8 9 10 11 12 12 13 13 13 11 10 10 12 14 15 16 17 18 18 18 19 19 19 19 19 19 19 19 18
17 16 14 15 13 12 13 10 8 7 7 7 6 6 6 6 6 7 7 8 9 9 10 10 11 12 13 13 13 12 11 13 14 16 17 18 18 19 19 19 20 20 20 21 21 21 21 21 21
16 14 14 12 10 12 12 11 8 7 8 7 7 6 6 6 5 7 8 9 9 9 10 10 12 12 13 12 13 13 13 14 16 17 18 18 19 19 20 20 20 20 20 20 21 22 22 22 23
13 13 12 10 9 11 10 9 6 5 6 6 6 6 6 5 5 6 8 9 9 9 10 11 11 12 12 13 13 14 15 16 17 17 18 18 19 20 20 21 21 21 21 21 21 22 22 22 22
13 13 12 11 10 10 11 9 7 5 5 5 5 5 5 6 6 7 8 8 9 9 10 10 11 12 13 14 14 15 16 16 17 18 18 19 19 20 20 21 22 22 22 22 23 23 24 24 24
13 11 11 11 12 10 10 10 6 5 6 6 5 5 5 5 6 7 7 8 9 9 10 11 12 12 13 14 14 14 14 15 16 17 18 19 19 20 21 21 22 23 23 24 24 24 24 25 25
12 12 12 12 13 16 14 14 8 7 6 5 6 5 5 5 6 6 7 8 8 9 10 10 11 12 12 12 12 13 14 14 16 17 18 18 19 20 21 22 23 24 24 25 25 25 25 26 26
13 12 14 19 19 19 15 14 10 6 5 4 5 5 5 6 6 7 7 8 8 9 10 10 11 12 12 12 12 13 13 14 15 16 17 18 19 21 22 23 24 24 25 25 25 26 26 26 26
13 14 14 12 27 17 16 19 11 8 7 6 6 6 5 6 7 7 7 8 8 8 8 9 10 11 11 11 12 12 13 14 14 16 17 18 20 22 23 24 24 25 25 25 26 26 26 27 27
14 14 15 10 26 29 20 21 12 9 9 8 7 7 7 7 7 7 7 8 8 8 8 9 9 10 11 11 11 12 13 13 14 16 17 19 21 23 24 25 25 25 25 26 26 27 27 27 28
17 17 14 17 20 26 17 13 8 8 10 9 9 8 8 8 8 8 7 8 8 8 8 9 9 9 10 10 11 11 12 13 14 15 17 19 21 23 24 24 25 25 25 26 27 27 28 28 29
17 17 20 21 16 16 16 19 12 11 11 11 11 9 9 9 8 8 8 8 9 8 8 9 9 9 9 10 11 11 12 13 14 15 17 20 22 23 24 25 25 25 26 27 28 29 29 30 30
20 20 21 21 23 19 28 15 15 14 13 13 13 12 10 9 9 9 10 10 10 10 9 10 10 10 10 10 11 11 12 13 14 15 18 20 23 24 25 25 26 26 27 28 29 30 30 31 31
19 19 21 25 18 29 30 23 8 9 12 14 13 13 12 11 11 11 11 11 11 11 11 12 11 11 10 10 11 12 12 13 14 16 18 21 23 24 26 26 27 28 29 30 31 31 32 32 32